This is the latest recevied weather packets stored in our database for station/object N3SBK. If no packets are shown the sender has not sent any weather packets the latest 10 day(s).
| Time | Temp. | Humidity | Pressure | Rain* | Wind** | Luminosity | Snow |
|---|---|---|---|---|---|---|---|
| 1777552791 | 8.89° C | 84% | 1000.9 hPa | 0 mm | - | 51 W/m² | - |
| 1777552487 | 8.89° C | 85% | 1000.9 hPa | 0 mm | - | 86 W/m² | - |
| 1777552183 | 8.89° C | 83% | 1000.7 hPa | 0 mm | - | 71 W/m² | - |
| 1777551880 | 8.89° C | 87% | 1000.9 hPa | 0 mm | - | 50 W/m² | - |
| 1777551578 | 8.33° C | 89% | 1001 hPa | 0 mm | - | 75 W/m² | - |
| 1777551275 | 8.33° C | 89% | 1000.8 hPa | 0 mm | - | 63 W/m² | - |
| 1777550972 | 8.33° C | 91% | 1000.9 hPa | 0 mm | - | 53 W/m² | - |
| 1777550669 | 8.33° C | 92% | 1000.7 hPa | 0 mm | - | 50 W/m² | - |
| 1777550365 | 8.33° C | 93% | 1000.8 hPa | 0 mm | - | 55 W/m² | - |
| 1777550060 | 8.33° C | 94% | 1000.9 hPa | 0 mm | - | 47 W/m² | - |
| 1777549758 | 8.33° C | 95% | 1000.8 hPa | 0 mm | - | 46 W/m² | - |
| 1777549453 | 7.78° C | 95% | 1000.8 hPa | 0 mm | - | 31 W/m² | - |
| 1777549150 | 7.78° C | 95% | 1000.8 hPa | 0 mm | - | 30 W/m² | - |
| 1777548846 | 7.78° C | 95% | 1000.8 hPa | 0 mm | - | 20 W/m² | - |
| 1777548543 | 7.78° C | 95% | 1000.9 hPa | 0 mm | - | 17 W/m² | - |
| 1777548240 | 7.78° C | 96% | 1000.9 hPa | 0 mm | - | 15 W/m² | - |
| 1777547937 | 7.78° C | 96% | 1000.9 hPa | 0 mm | - | 29 W/m² | - |
| 1777547633 | 7.78° C | 96% | 1000.6 hPa | 0 mm | - | 21 W/m² | - |
| 1777547330 | 7.78° C | 96% | 1000.7 hPa | 0 mm | - | 13 W/m² | - |
| 1777547027 | 7.78° C | 96% | 1000.8 hPa | 0 mm | - | 8 W/m² | - |
| 1777546724 | 7.78° C | 96% | 1000.9 hPa | 0 mm | - | 6 W/m² | - |
| 1777546421 | 7.78° C | 96% | 1000.8 hPa | 0 mm | - | 5 W/m² | - |
| 1777546118 | 7.78° C | 96% | 1000.8 hPa | 0 mm | - | 8 W/m² | - |
| 1777545813 | 7.78° C | 96% | 1000.9 hPa | 0 mm | - | 3 W/m² | - |
| 1777545511 | 7.78° C | 96% | 1000.7 hPa | 0 mm | - | 4 W/m² | - |
* Rain latest hour (hover to see other rain measurements)
** Current wind speed in m/s (hover to see current wind gust speed)